K0CFI Weather Reports


time (UTC)temp
C
wind
direction
speed
KPH
gust
KPH
rain 1hr
cm
rain 24hr
cm
rain mn
cm
humidity
%
barometer
mb
20260507151510 16 179 0.0 0.0 0.00 0.00 0.00 84 1017.6
20260507150016 15 179 0.0 1.6 0.00 0.00 0.00 86 1017.5
20260507144515 15 181 0.0 0.0 0.00 0.00 0.00 88 1017.5
20260507143025 13 182 0.0 0.0 0.00 0.00 0.00 90 1017.4
20260507141511 12 184 0.0 0.0 0.00 0.00 0.00 92 1017.3
20260507140012 12 184 0.0 0.0 0.00 0.00 0.00 92 1017.1
20260507134514 11 184 0.0 0.0 0.00 0.00 0.00 91 1017.1
20260507133022 11 184 0.0 0.0 0.00 0.00 0.00 90 1016.9
20260507131524 11 184 0.0 0.0 0.00 0.00 0.00 90 1016.8
20260507130021 11 184 0.0 0.0 0.00 0.00 0.00 90 1016.8
20260507124519 11 184 0.0 0.0 0.00 0.00 0.00 90 1016.7
20260507123018 11 184 0.0 0.0 0.00 0.00 0.00 89 1016.6
20260507121522 12 184 0.0 0.0 0.00 0.00 0.00 89 1016.5
20260507120024 12 184 0.0 0.0 0.00 0.00 0.00 89 1016.4
20260507114525 12 184 0.0 0.0 0.00 0.00 0.00 89 1016.5
20260507113014 12 184 0.0 0.0 0.00 0.00 0.00 89 1016.5
20260507111519 12 184 0.0 0.0 0.00 0.00 0.00 89 1016.7
20260507110024 12 184 0.0 0.0 0.00 0.00 0.00 89 1016.8
20260507104527 12 184 0.0 0.0 0.00 0.00 0.00 88 1016.8
20260507103030 12 184 0.0 0.0 0.00 0.00 0.00 88 1016.8
20260507101523 13 184 0.0 0.0 0.00 0.00 0.00 88 1017.0
20260507100027 13 184 0.0 0.0 0.00 0.00 0.00 88 1017.0
20260507094527 13 184 0.0 0.0 0.00 0.00 0.00 87 1017.2
20260507093026 13 184 0.0 0.0 0.00 0.00 0.00 87 1017.3
20260507091529 13 184 0.0 0.0 0.00 0.00 0.00 87 1017.2
20260507090021 13 184 0.0 0.0 0.00 0.00 0.00 86 1017.5
20260507084522 13 184 0.0 0.0 0.00 0.00 0.00 86 1017.5
20260507081524 14 184 0.0 0.0 0.00 0.00 0.00 86 1017.7
20260507080036 14 184 0.0 0.0 0.00 0.00 0.00 86 1017.9
20260507074528 14 184 0.0 0.0 0.00 0.00 0.00 85 1017.9
20260507073025 14 184 0.0 0.0 0.00 0.00 0.00 85 1018.1
20260507071556 15 184 0.0 0.0 0.00 0.00 0.00 85 1018.1
20260507070030 15 184 0.0 0.0 0.00 0.00 0.00 84 1018.1
20260507064527 15 184 0.0 0.0 0.00 0.00 0.00 84 1018.1
20260507063025 15 184 0.0 0.0 0.00 0.00 0.00 84 1018.1
20260507061525 15 184 0.0 0.0 0.00 0.00 0.00 84 1018.1
20260507060024 15 259 0.0 0.0 0.00 0.00 0.00 84 1018.1
20260507054504 15 259 0.0 0.0 0.00 0.00 0.00 84 1018.3
20260507053004 15 259 0.0 0.0 0.00 0.00 0.00 83 1018.3
20260507051504 15 259 0.0 0.0 0.00 0.00 0.00 83 1018.1
20260507044521 15 259 0.0 0.0 0.00 0.00 0.00 81 1018.0
20260507043011 16 259 0.0 0.0 0.00 0.00 0.00 81 1017.9
20260507040003 16 259 0.0 0.0 0.00 0.00 0.00 81 1017.7
20260507034526 16 259 0.0 1.6 0.00 0.00 0.00 80 1017.6
20260507033014 16 317 0.0 1.6 0.00 0.00 0.00 80 1017.5
20260507031516 16 11 0.0 1.6 0.00 0.00 0.00 80 1017.4
20260507030013 17 340 0.0 1.6 0.00 0.00 0.00 79 1017.3
20260507024521 17 6 0.0 1.6 0.00 0.00 0.00 79 1017.2
20260507023011 17 323 0.0 1.6 0.00 0.00 0.00 76 1017.0
20260507021510 18 42 0.0 3.2 0.00 0.00 0.00 74 1016.9
20260507020017 18 329 0.0 1.6 0.00 0.00 0.00 72 1016.9
20260507013011 20 285 0.0 3.2 0.00 0.00 0.00 62 1016.6
20260507011522 20 292 0.0 1.6 0.00 0.00 0.00 59 1016.6
20260507010022 21 269 0.0 4.8 0.00 0.00 0.00 54 1016.5
20260507004532 22 288 0.0 3.2 0.00 0.00 0.00 52 1016.5
20260507003014 23 257 0.0 6.4 0.00 0.00 0.00 51 1016.4
20260507001516 23 51 0.0 3.2 0.00 0.00 0.00 56 1016.3
20260507000016 23 25 0.0 3.2 0.00 0.00 0.00 56 1016.2
20260506234515 23 25 0.0 1.6 0.00 0.00 0.00 57 1016.2
20260506233016 22 70 1.6 4.8 0.00 0.00 0.00 58 1016.2
20260506230019 22 60 1.6 4.8 0.00 0.00 0.00 57 1016.4
20260506224520 22 25 0.0 4.8 0.00 0.00 0.00 59 1016.5
20260506223013 22 45 0.0 4.8 0.00 0.00 0.00 62 1016.8
20260506221524 22 38 1.6 6.4 0.00 0.00 0.00 60 1017.0
20260506220031 22 65 1.6 6.4 0.00 0.00 0.00 60 1017.1
20260506214527 22 20 1.6 6.4 0.00 0.00 0.00 59 1017.2
20260506213017 22 252 1.6 4.8 0.00 0.00 0.00 60 1017.4
20260506211523 22 302 0.0 3.2 0.00 0.00 0.00 59 1017.4
20260506210022 22 257 1.6 4.8 0.00 0.00 0.00 61 1017.5
20260506204529 22 20 0.0 6.4 0.00 0.00 0.00 61 1017.6
20260506203019 21 257 0.0 6.4 0.00 0.00 0.00 63 1017.6
20260506201528 21 28 0.0 4.8 0.00 0.00 0.00 63 1017.8
20260506200022 21 326 0.0 6.4 0.00 0.00 0.00 64 1017.9
20260506194523 21 284 1.6 4.8 0.00 0.00 0.00 63 1018.2
20260506193022 21 321 0.0 9.7 0.00 0.00 0.00 62 1018.1
20260506191514 21 275 0.0 3.2 0.00 0.00 0.00 61 1018.2
20260506190023 21 302 0.0 3.2 0.00 0.00 0.00 59 1018.3
20260506184525 21 302 0.0 4.8 0.00 0.00 0.00 62 1018.4
20260506183025 20 255 0.0 1.6 0.00 0.00 0.00 59 1018.5
20260506181526 19 250 0.0 4.8 0.00 0.00 0.00 61 1018.7
20260506180016 19 252 0.0 3.2 0.00 0.00 0.00 62 1018.9
20260506174523 18 253 0.0 4.8 0.00 0.00 0.00 61 1019.0
20260506173025 18 253 0.0 1.6 0.00 0.00 0.00 64 1019.0
20260506171526 17 258 0.0 3.2 0.00 0.00 0.00 69 1019.1
20260506170025 17 249 0.0 0.0 0.00 0.00 0.00 69 1019.1
20260506163019 16 246 0.0 0.0 0.00 0.00 0.00 71 1019.3
20260506161526 16 250 0.0 0.0 0.00 0.00 0.00 75 1019.2
20260506160027 16 250 0.0 0.0 0.00 0.00 0.00 77 1019.1
20260506154528 15 252 0.0 0.0 0.00 0.00 0.00 79 1019.1
20260506153028 14 251 0.0 0.0 0.00 0.00 0.00 83 1019.2